Weather History for Iron Mountain, MI

Change the Weather History Date:

Saturday, January 19, 2013

  Actual Average Record
Temperature  
Mean Temperature 22 °F -  
Max Temperature 37 °F 25 °F 46 °F (1981)
Min Temperature 6 °F 3 °F -29 °F (1984)
Degree Days  
Heating Degree Days 44    
Moisture  
Dew Point 15 °F    
Average Humidity 77    
Maximum Humidity 93    
Minimum Humidity 62    
Precipitation  
Precipitation 0.00 in - - ()
Sea Level Pressure  
Sea Level Pressure 29.62 in    
Wind  
Wind Speed 10 mph (WNW)    
Max Wind Speed 33 mph    
Max Gust Speed 46 mph    
Visibility 6 miles    
Events Fog , Rain , Snow    
Averages and records for this station are not official NWS values.
T = Trace of Precipitation, MM = Missing Value Source: NWS Daily Summary

Daily Weather History Graph

Daily Weather History Graph

Search for Another Location

Airport:

Trip Planner

Search our weather history database for the weather conditions in past years. The results will help you decide how hot, cold, wet, or windy it might be!

Date:

Astronomy

Jan. 19, 2013 Rise Set
Actual Time 7:26 AM CST 4:40 PM CST
Civil Twilight 6:53 AM CST 5:13 PM CST
Nautical Twilight 6:17 AM CST 5:49 PM CST
Astronomical Twilight 5:41 AM CST 6:25 PM CST
Moon 11:09 AM CST (1/19) 12:56 AM CST (1/19)
Length of Visible Light 10h 19m
Length of Day
9h 13m
First Quarter, 57% of the Moon is Illuminated
Jan 19
First Quarter
Jan 26
Full
Feb 3
Last Quarter
Feb 10
New
Feb 17
First Quarter

Hourly Weather History & Observations

Time (CST) Temp. Windchill Dew Point Humidity Pressure Visibility Wind Dir Wind Speed Gust Speed Precip Events Conditions
12:37 AM 17.6 °F 12.3 °F 12.2 °F 79% 29.70 in 10.0 mi NNW 3.5 mph - N/A   Overcast
12:54 AM 18.0 °F - 12.9 °F 81% 29.77 in 10.0 mi Calm Calm - N/A   Overcast
1:54 AM 18.0 °F - 14.0 °F 84% 29.78 in 10.0 mi Calm Calm - N/A   Overcast
2:17 AM 19.4 °F - 14.0 °F 80% 29.73 in 10.0 mi Calm Calm - N/A   Overcast
2:54 AM 19.0 °F - 14.0 °F 81% 29.79 in 10.0 mi Calm Calm - N/A   Overcast
3:54 AM 19.9 °F 14.9 °F 15.1 °F 81% 29.81 in 10.0 mi NW 3.5 mph - N/A   Overcast
4:20 AM 21.2 °F 14.9 °F 17.6 °F 86% 29.74 in 10.0 mi Variable 4.6 mph - N/A   Mostly Cloudy
4:54 AM 21.9 °F - 18.0 °F 85% 29.80 in 10.0 mi Calm Calm - N/A   Mostly Cloudy
5:54 AM 19.0 °F 13.9 °F 16.0 °F 88% 29.80 in 10.0 mi NNW 3.5 mph - N/A   Overcast
6:54 AM 19.9 °F - 17.1 °F 89% 29.77 in 10.0 mi Calm Calm - N/A   Overcast
7:43 AM 19.4 °F 11.5 °F 17.6 °F 93% 29.71 in 10.0 mi SE 5.8 mph - N/A   Overcast
7:54 AM 19.9 °F 12.1 °F 17.1 °F 89% 29.76 in 10.0 mi SE 5.8 mph - N/A   Overcast
8:21 AM 19.4 °F 11.5 °F 17.6 °F 93% 29.67 in 10.0 mi ESE 5.8 mph - N/A   Overcast
8:54 AM 21.0 °F 14.6 °F 17.1 °F 85% 29.72 in 10.0 mi East 4.6 mph - N/A   Overcast
9:54 AM 24.1 °F 14.4 °F 19.9 °F 84% 29.71 in 9.0 mi SSE 9.2 mph - N/A   Overcast
10:54 AM 26.1 °F - 21.9 °F 84% 29.68 in 7.0 mi Calm Calm - N/A   Overcast
11:22 AM 26.6 °F 21.2 °F 23.0 °F 86% 29.59 in 8.0 mi SSE 4.6 mph - N/A   Overcast
11:54 AM 30.0 °F 24.1 °F 24.1 °F 79% 29.61 in 9.0 mi South 5.8 mph - N/A   Mostly Cloudy
12:54 PM 33.1 °F 26.9 °F 27.0 °F 78% 29.55 in 10.0 mi SSE 6.9 mph - N/A   Partly Cloudy
1:54 PM 34.0 °F 28.8 °F 28.0 °F 79% 29.52 in 10.0 mi South 5.8 mph - N/A   Mostly Cloudy
2:41 PM 35.6 °F 29.9 °F 28.4 °F 75% 29.43 in 9.0 mi South 6.9 mph - 0.00 in   Mostly Cloudy
2:54 PM 36.0 °F 32.1 °F 28.9 °F 76% 29.48 in 10.0 mi South 4.6 mph - 0.00 in   Overcast
3:54 PM 37.9 °F 28.5 °F 30.0 °F 73% 29.48 in 10.0 mi West 17.3 mph 24.2 mph 0.00 in Rain Light Rain
4:11 PM 35.6 °F 27.1 °F 30.2 °F 81% 29.43 in 10.0 mi West 12.7 mph 27.6 mph 0.00 in Rain Light Rain
4:54 PM 34.0 °F 26.0 °F 28.9 °F 82% 29.48 in 9.0 mi West 10.4 mph 18.4 mph 0.00 in   Overcast
5:54 PM 33.1 °F 25.5 °F 23.0 °F 66% 29.49 in 10.0 mi West 9.2 mph 20.7 mph 0.00 in Snow Light Snow
6:50 PM 28.4 °F 12.0 °F 21.2 °F 74% 29.46 in 1.5 mi NW 33.4 mph 43.7 mph 0.00 in Snow Light Snow
6:54 PM 26.1 °F 10.4 °F 21.0 °F 81% 29.52 in 0.8 mi NNW 26.5 mph 43.7 mph 0.00 in Snow Light Snow
6:58 PM 26.6 °F 11.1 °F 21.2 °F 80% 29.47 in 1.0 mi NW 26.5 mph 40.3 mph 0.00 in Snow Light Snow
7:03 PM 26.6 °F 12.0 °F 19.4 °F 74% 29.47 in 3.0 mi NW 23.0 mph 34.5 mph 0.00 in Snow Light Snow
7:21 PM 24.8 °F 7.9 °F 17.6 °F 74% 29.49 in 2.5 mi WNW 29.9 mph 41.4 mph 0.00 in Snow Light Snow
7:29 PM 23.0 °F 5.4 °F 15.8 °F 74% 29.50 in 1.2 mi NW 29.9 mph 46.0 mph 0.00 in Snow Light Snow
7:33 PM 23.0 °F 6.0 °F 14.0 °F 68% 29.50 in 2.0 mi NW 27.6 mph 46.0 mph 0.00 in Snow Light Snow
7:41 PM 23.0 °F 7.2 °F 12.2 °F 63% 29.50 in 7.0 mi WNW 23.0 mph 43.7 mph 0.00 in   Overcast
7:54 PM 21.9 °F 6.2 °F 12.9 °F 68% 29.57 in 6.0 mi NW 21.9 mph 38.0 mph 0.00 in Snow Light Snow
8:16 PM 21.2 °F 5.2 °F 12.2 °F 68% 29.51 in 2.5 mi NW 21.9 mph 35.7 mph 0.00 in Snow Light Snow
8:24 PM 19.4 °F 2.8 °F 15.8 °F 86% 29.52 in 0.8 mi NW 21.9 mph 34.5 mph 0.00 in Snow Light Snow
8:41 PM 19.4 °F 1.8 °F 12.2 °F 74% 29.53 in 1.2 mi NW 25.3 mph 34.5 mph 0.00 in Snow Light Snow
8:54 PM 18.0 °F 0.6 °F 12.9 °F 81% 29.61 in 1.0 mi WNW 23.0 mph 36.8 mph 0.00 in Snow Light Snow
9:54 PM 14.0 °F -3.9 °F 10.0 °F 84% 29.67 in 0.5 mi NW 20.7 mph 32.2 mph 0.00 in Fog , Snow Snow
10:13 PM 12.2 °F -9.9 °F 6.8 °F 79% 29.63 in 1.0 mi NW 32.2 mph 39.1 mph 0.00 in Snow Light Snow
10:22 PM 12.2 °F -8.9 °F 5.0 °F 73% 29.64 in 0.5 mi NW 28.8 mph 44.9 mph 0.00 in Snow Snow
10:29 PM 12.2 °F -9.3 °F 1.4 °F 62% 29.65 in 1.0 mi WNW 29.9 mph 44.9 mph 0.00 in Snow Light Snow
10:35 PM 10.4 °F -12.3 °F 3.2 °F 73% 29.66 in 0.8 mi NW 32.2 mph 42.6 mph 0.00 in Snow Light Snow
10:54 PM 9.0 °F -12.2 °F -0.9 °F 64% 29.75 in 1.0 mi WNW 25.3 mph 46.0 mph 0.00 in Snow Light Snow
11:00 PM 8.6 °F -14.5 °F -2.2 °F 62% 29.68 in 2.0 mi WNW 31.1 mph 43.7 mph N/A Snow Blowing Snow
11:15 PM 8.6 °F -12.7 °F -2.2 °F 62% 29.70 in 4.0 mi NW 25.3 mph 38.0 mph N/A Snow Blowing Snow
11:23 PM 6.8 °F -16.9 °F -2.2 °F 67% 29.71 in 2.5 mi NW 31.1 mph 41.4 mph N/A Snow Blowing Snow
11:39 PM 6.8 °F -14.7 °F -2.2 °F 67% 29.71 in 5.0 mi NW 24.2 mph 36.8 mph N/A Snow Blowing Snow